Location: Unspecified
(0.0000°N, 0.0000°E)
Time: 08:16:15
(UTC+00:00)

OV3-3 - Pass Details

Date: 28 September 2017
Orbit: 341 x 2257 km, 81.4° (Epoch: 21 October)

Event Time Altitude Azimuth Distance (km) Brightness Sun altitude
Rises 04:13:36 0° 158° (SSE) 2,883 10.3 -24.3°
Reaches altitude 10° 04:17:20 10° 125° (SE) 1,651 9.5 -23.3°
Maximum altitude 04:18:38 12° 103° (ESE) 1,450 9.5 -23.0°
Drops below altitude 10° 04:19:50 10° 80° (E) 1,473 9.6 -22.7°
Sets 04:22:38 0° 43° (NE) 2,180 10.0 -22.0°
